Location: Vassar Physics Lab
(41.6843°N, 73.8954°W)
Time: 03:13:09
(UTC-04:00)

CZ-4B DEB - Visible Passes

Search period start: 29 August 2016 00:00
Search period end: 08 September 2016 00:00
Orbit: 841 x 863 km, 98.9° (Epoch: 27 August)

Date Brightness Start Highest point End Pass type
(mag) Time Alt. Az. Time Alt. Az. Time Alt. Az.
29 Aug 6.8 03:19:17 10° ENE 03:21:51 13° E 03:24:26 10° ESE visible
29 Aug 4.1 04:57:41 10° NNE 05:03:10 78° WNW 05:08:37 10° SSW visible
30 Aug 7.1 03:10:09 10° E 03:10:18 10° E 03:10:26 10° E visible
30 Aug 4.2 04:46:17 10° NNE 04:51:47 84° ESE 04:57:14 10° SSW visible
31 Aug 4.5 04:34:55 10° NNE 04:40:23 67° ESE 04:45:47 10° S visible
01 Sep 4.9 04:23:36 10° NNE 04:28:57 53° E 04:34:15 10° S visible
02 Sep 5.3 04:12:20 10° NNE 04:17:31 42° E 04:22:38 10° S visible
03 Sep 5.7 04:01:08 10° NNE 04:06:03 33° E 04:10:55 10° SSE visible
03 Sep 5.0 05:41:51 10° N 05:46:42 33° WNW 05:51:31 10° SW visible
04 Sep 6.0 03:50:01 10° NE 03:54:34 26° E 03:59:05 10° SSE visible
04 Sep 4.7 05:30:17 10° N 05:35:23 41° WNW 05:40:28 10° SW visible
05 Sep 6.3 03:39:00 10° NE 03:43:03 21° E 03:47:05 10° SE visible
05 Sep 4.4 05:18:46 10° N 05:24:02 52° WNW 05:29:18 10° SW visible
06 Sep 6.6 03:28:09 10° NE 03:31:32 16° E 03:34:54 10° SE visible
06 Sep 4.2 05:07:17 10° N 05:12:41 65° WNW 05:18:05 10° SSW visible
07 Sep 6.8 03:17:39 10° ENE 03:20:00 13° E 03:22:19 10° ESE visible
07 Sep 4.1 04:55:51 10° NNE 05:01:19 82° WNW 05:06:47 10° SSW visible
